Location: Chuathbaluk
(61.5726°N, 159.2454°W)
Time: 18:46:59
(UTC+00:00)

TIGRISAT - Pass Details

Date: 19 January 2021
Orbit: 605 x 688 km, 97.7° (Epoch: 06 March)

Event Time Altitude Azimuth Distance (km) Brightness Sun altitude
Rises 15:30:41 0° 118° (ESE) 2,874 ? -26.8°
Reaches altitude 10° 15:33:08 10° 105° (ESE) 1,981 ? -26.5°
Maximum altitude 15:36:36 24° 52° (NE) 1,290 ? -26.1°
Drops below altitude 10° 15:40:08 10° 358° (N) 2,021 ? -25.7°
Enters shadow 15:40:26 - 356° (N) 2,124 ? -25.7°
